| time (UTC) | temp F | wind direction | speed MPH | gust MPH | rain 1hr in | rain 24hr in | rain mn in | humidity % | barometer mb |
| 20260509042547 | 52 | 178 | 3.0 | 5.0 | 0.00 | 0.00 | 0.00 | 76 | 1003.6 |
| 20260509042045 | 52 | 194 | 4.0 | 6.0 | 0.00 | 0.00 | 0.00 | 76 | 1003.5 |
| 20260509041552 | 52 | 190 | 4.0 | 6.0 | 0.00 | 0.00 | 0.00 | 77 | 1003.5 |
| 20260509041047 | 52 | 192 | 4.0 | 6.0 | 0.00 | 0.00 | 0.00 | 76 | 1003.5 |
| 20260509040544 | 52 | 195 | 3.0 | 6.0 | 0.00 | 0.00 | 0.00 | 77 | 1003.5 |
| 20260509035547 | 52 | 192 | 4.0 | 7.0 | 0.00 | 0.00 | 0.00 | 75 | 1003.4 |
| 20260509035045 | 52 | 180 | 4.0 | 7.0 | 0.00 | 0.00 | 0.00 | 75 | 1003.5 |
| 20260509034551 | 52 | 182 | 4.0 | 7.0 | 0.00 | 0.00 | 0.00 | 75 | 1003.5 |
| 20260509034044 | 52 | 190 | 4.0 | 7.0 | 0.00 | 0.00 | 0.00 | 75 | 1003.5 |
| 20260509033547 | 52 | 196 | 4.0 | 7.0 | 0.00 | 0.00 | 0.00 | 75 | 1003.6 |
| 20260509033050 | 52 | 180 | 4.0 | 7.0 | 0.00 | 0.00 | 0.00 | 75 | 1003.5 |
| 20260509032547 | 52 | 177 | 4.0 | 7.0 | 0.00 | 0.00 | 0.00 | 75 | 1003.6 |
| 20260509032048 | 53 | 186 | 5.0 | 8.0 | 0.00 | 0.00 | 0.00 | 74 | 1003.6 |
| 20260509031554 | 53 | 184 | 4.0 | 8.0 | 0.00 | 0.00 | 0.00 | 74 | 1003.7 |
| 20260509031047 | 53 | 184 | 5.0 | 8.0 | 0.00 | 0.00 | 0.00 | 73 | 1003.8 |
| 20260509030545 | 53 | 191 | 5.0 | 7.0 | 0.00 | 0.00 | 0.00 | 73 | 1003.8 |
| 20260509030053 | 53 | 188 | 5.0 | 7.0 | 0.00 | 0.00 | 0.00 | 73 | 1003.9 |
| 20260509025545 | 53 | 178 | 4.0 | 7.0 | 0.00 | 0.00 | 0.00 | 74 | 1004.0 |
| 20260509025045 | 53 | 178 | 4.0 | 8.0 | 0.00 | 0.00 | 0.00 | 73 | 1003.8 |
| 20260509024550 | 53 | 189 | 4.0 | 8.0 | 0.00 | 0.00 | 0.00 | 73 | 1003.9 |
| 20260509024043 | 53 | 198 | 4.0 | 7.0 | 0.00 | 0.00 | 0.00 | 73 | 1004.0 |
| 20260509023545 | 53 | 183 | 3.0 | 6.0 | 0.00 | 0.00 | 0.00 | 73 | 1004.0 |
| 20260509023050 | 53 | 186 | 3.0 | 7.0 | 0.00 | 0.00 | 0.00 | 72 | 1004.0 |
| 20260509022544 | 53 | 175 | 3.0 | 7.0 | 0.00 | 0.00 | 0.00 | 72 | 1004.1 |
| 20260509022048 | 53 | 186 | 3.0 | 7.0 | 0.00 | 0.00 | 0.00 | 71 | 1004.1 |
| 20260509021552 | 53 | 188 | 2.0 | 5.0 | 0.00 | 0.00 | 0.00 | 71 | 1004.1 |
| 20260509021047 | 53 | 196 | 1.0 | 6.0 | 0.00 | 0.00 | 0.00 | 70 | 1004.1 |
| 20260509020547 | 53 | 0 | 1.0 | 6.0 | 0.00 | 0.00 | 0.00 | 70 | 1004.0 |
| 20260509020054 | 53 | 186 | 2.0 | 6.0 | 0.00 | 0.00 | 0.00 | 68 | 1004.1 |
| 20260509015545 | 54 | 187 | 0.0 | 7.0 | 0.00 | 0.00 | 0.00 | 67 | 1004.3 |
| 20260509015046 | 54 | 198 | 2.0 | 7.0 | 0.00 | 0.00 | 0.00 | 67 | 1004.2 |
| 20260509014549 | 54 | 180 | 1.0 | 6.0 | 0.00 | 0.00 | 0.00 | 67 | 1004.2 |
| 20260509014051 | 55 | 188 | 2.0 | 8.0 | 0.00 | 0.00 | 0.00 | 68 | 1004.3 |
| 20260509013548 | 55 | 196 | 3.0 | 8.0 | 0.00 | 0.00 | 0.00 | 66 | 1004.3 |
| 20260509013101 | 55 | 186 | 5.0 | 8.0 | 0.00 | 0.00 | 0.00 | 67 | 1004.3 |
| 20260509012547 | 56 | 192 | 4.0 | 8.0 | 0.00 | 0.00 | 0.00 | 67 | 1004.3 |
| 20260509012046 | 56 | 192 | 5.0 | 8.0 | 0.00 | 0.00 | 0.00 | 68 | 1004.4 |
| 20260509011553 | 56 | 180 | 4.0 | 7.0 | 0.00 | 0.00 | 0.00 | 66 | 1004.5 |
| 20260509011046 | 56 | 178 | 3.0 | 6.0 | 0.00 | 0.00 | 0.00 | 66 | 1004.4 |
| 20260509010547 | 57 | 189 | 1.0 | 9.0 | 0.00 | 0.00 | 0.00 | 65 | 1004.5 |
| 20260509010056 | 57 | 0 | 3.0 | 9.0 | 0.00 | 0.00 | 0.00 | 64 | 1004.5 |
| 20260509005548 | 57 | 190 | 5.0 | 10.0 | 0.00 | 0.00 | 0.00 | 65 | 1004.5 |
| 20260509005047 | 58 | 172 | 6.0 | 10.0 | 0.00 | 0.00 | 0.00 | 64 | 1004.5 |
| 20260509004610 | 58 | 181 | 4.0 | 10.0 | 0.00 | 0.00 | 0.00 | 65 | 1004.5 |
| 20260509004049 | 58 | 193 | 5.0 | 10.0 | 0.00 | 0.00 | 0.00 | 64 | 1004.4 |
| 20260509003547 | 58 | 194 | 3.0 | 9.0 | 0.00 | 0.00 | 0.00 | 60 | 1004.5 |
| 20260509003052 | 59 | 194 | 3.0 | 9.0 | 0.00 | 0.00 | 0.00 | 60 | 1004.5 |
| 20260509002548 | 59 | 198 | 4.0 | 8.0 | 0.00 | 0.00 | 0.00 | 60 | 1004.5 |
| 20260509002047 | 59 | 185 | 4.0 | 10.0 | 0.00 | 0.00 | 0.00 | 57 | 1004.5 |
| 20260509001551 | 59 | 205 | 4.0 | 10.0 | 0.00 | 0.00 | 0.00 | 58 | 1004.5 |
| 20260509001048 | 59 | 172 | 4.0 | 10.0 | 0.00 | 0.00 | 0.00 | 55 | 1004.6 |
| 20260509000545 | 59 | 200 | 3.0 | 10.0 | 0.00 | 0.00 | 0.00 | 54 | 1004.5 |
| 20260509000051 | 59 | 188 | 6.0 | 10.0 | 0.00 | 0.00 | 0.00 | 55 | 1004.7 |
| 20260508235547 | 60 | 183 | 3.0 | 8.0 | 0.00 | 0.00 | 0.00 | 54 | 1004.7 |
| 20260508235046 | 60 | 196 | 2.0 | 9.0 | 0.00 | 0.00 | 0.00 | 49 | 1004.7 |
| 20260508234552 | 60 | 157 | 3.0 | 9.0 | 0.00 | 0.00 | 0.00 | 51 | 1004.8 |
| 20260508234047 | 60 | 182 | 3.0 | 11.0 | 0.00 | 0.00 | 0.00 | 50 | 1004.8 |
| 20260508233548 | 60 | 163 | 4.0 | 11.0 | 0.00 | 0.00 | 0.00 | 46 | 1004.8 |
| 20260508233059 | 60 | 181 | 3.0 | 9.0 | 0.00 | 0.00 | 0.00 | 48 | 1005.1 |
| 20260508232547 | 61 | 203 | 3.0 | 8.0 | 0.00 | 0.00 | 0.00 | 42 | 1005.0 |
| 20260508232046 | 61 | 0 | 3.0 | 10.0 | 0.00 | 0.00 | 0.00 | 43 | 1004.9 |
| 20260508231552 | 62 | 205 | 4.0 | 10.0 | 0.00 | 0.00 | 0.00 | 43 | 1005.0 |
| 20260508231046 | 63 | 161 | 3.0 | 9.0 | 0.00 | 0.00 | 0.00 | 41 | 1005.0 |
| 20260508230546 | 65 | 0 | 1.0 | 5.0 | 0.00 | 0.00 | 0.00 | 41 | 1005.1 |
| 20260508230059 | 65 | 194 | 1.0 | 4.0 | 0.00 | 0.00 | 0.00 | 32 | 1005.0 |
| 20260508225546 | 65 | 0 | 0.0 | 2.0 | 0.00 | 0.00 | 0.00 | 34 | 1005.0 |
| 20260508225048 | 65 | 0 | 0.0 | 4.0 | 0.00 | 0.00 | 0.00 | 34 | 1005.0 |
| 20260508224550 | 65 | 194 | 0.0 | 7.0 | 0.00 | 0.00 | 0.00 | 39 | 1004.9 |
| 20260508224047 | 65 | 197 | 3.0 | 7.0 | 0.00 | 0.00 | 0.00 | 36 | 1005.0 |
| 20260508223547 | 65 | 197 | 2.0 | 8.0 | 0.00 | 0.00 | 0.00 | 33 | 1005.0 |
| 20260508223052 | 65 | 209 | 2.0 | 8.0 | 0.00 | 0.00 | 0.00 | 38 | 1005.1 |
| 20260508222546 | 65 | 221 | 4.0 | 8.0 | 0.00 | 0.00 | 0.00 | 36 | 1005.1 |
| 20260508222046 | 66 | 197 | 3.0 | 7.0 | 0.00 | 0.00 | 0.00 | 38 | 1005.1 |
| 20260508221551 | 66 | 217 | 2.0 | 7.0 | 0.00 | 0.00 | 0.00 | 35 | 1005.1 |
| 20260508221047 | 65 | 196 | 0.0 | 3.0 | 0.00 | 0.00 | 0.00 | 34 | 1005.1 |
| 20260508220547 | 65 | 225 | 1.0 | 6.0 | 0.00 | 0.00 | 0.00 | 33 | 1005.2 |
| 20260508220104 | 65 | 260 | 2.0 | 6.0 | 0.00 | 0.00 | 0.00 | 32 | 1005.2 |
| 20260508215546 | 66 | 230 | 2.0 | 6.0 | 0.00 | 0.00 | 0.00 | 34 | 1005.2 |
| 20260508215048 | 65 | 177 | 2.0 | 6.0 | 0.00 | 0.00 | 0.00 | 33 | 1005.1 |
| 20260508214551 | 65 | 216 | 2.0 | 6.0 | 0.00 | 0.00 | 0.00 | 35 | 1005.2 |
| 20260508214046 | 66 | 182 | 0.0 | 6.0 | 0.00 | 0.00 | 0.00 | 29 | 1005.2 |
| 20260508213547 | 66 | 267 | 0.0 | 6.0 | 0.00 | 0.00 | 0.00 | 30 | 1005.2 |
| 20260508213051 | 66 | 209 | 3.0 | 6.0 | 0.00 | 0.00 | 0.00 | 32 | 1005.3 |
| 20260508212547 | 66 | 211 | 1.0 | 6.0 | 0.00 | 0.00 | 0.00 | 28 | 1005.4 |
| 20260508212046 | 66 | 0 | 3.0 | 8.0 | 0.00 | 0.00 | 0.00 | 32 | 1005.5 |
| 20260508211557 | 66 | 213 | 2.0 | 10.0 | 0.00 | 0.00 | 0.00 | 31 | 1005.5 |
| 20260508211046 | 66 | 200 | 4.0 | 10.0 | 0.00 | 0.00 | 0.00 | 34 | 1005.3 |
| 20260508210548 | 67 | 161 | 0.0 | 7.0 | 0.00 | 0.00 | 0.00 | 32 | 1005.5 |
| 20260508210106 | 67 | 212 | 2.0 | 9.0 | 0.00 | 0.00 | 0.00 | 34 | 1005.7 |
| 20260508205547 | 67 | 210 | 3.0 | 9.0 | 0.00 | 0.00 | 0.00 | 31 | 1005.8 |
| 20260508205047 | 68 | 205 | 0.0 | 12.0 | 0.00 | 0.00 | 0.00 | 33 | 1005.8 |
| 20260508204557 | 66 | 216 | 4.0 | 12.0 | 0.00 | 0.00 | 0.00 | 29 | 1006.0 |
| 20260508204046 | 67 | 189 | 5.0 | 11.0 | 0.00 | 0.00 | 0.00 | 34 | 1006.0 |
| 20260508203547 | 67 | 188 | 3.0 | 6.0 | 0.00 | 0.00 | 0.00 | 35 | 1006.1 |
| 20260508203054 | 67 | 193 | 3.0 | 6.0 | 0.00 | 0.00 | 0.00 | 34 | 1006.3 |
| 20260508202547 | 67 | 208 | 3.0 | 6.0 | 0.00 | 0.00 | 0.00 | 36 | 1006.1 |
| 20260508202046 | 69 | 210 | 3.0 | 5.0 | 0.00 | 0.00 | 0.00 | 34 | 1006.3 |
| 20260508201558 | 69 | 0 | 0.0 | 9.0 | 0.00 | 0.00 | 0.00 | 34 | 1006.3 |
| 20260508201046 | 69 | 207 | 2.0 | 9.0 | 0.00 | 0.00 | 0.00 | 31 | 1006.4 |
| 20260508200546 | 68 | 184 | 2.0 | 8.0 | 0.00 | 0.00 | 0.00 | 31 | 1006.5 |
| 20260508200058 | 67 | 0 | 0.0 | 8.0 | 0.00 | 0.00 | 0.00 | 35 | 1006.5 |
| 20260508195545 | 66 | 196 | 1.0 | 9.0 | 0.00 | 0.00 | 0.00 | 36 | 1006.6 |
| 20260508195045 | 66 | 195 | 4.0 | 10.0 | 0.00 | 0.00 | 0.00 | 31 | 1006.7 |
| 20260508194551 | 65 | 236 | 3.0 | 10.0 | 0.00 | 0.00 | 0.00 | 36 | 1006.7 |
| 20260508194049 | 65 | 178 | 4.0 | 11.0 | 0.00 | 0.00 | 0.00 | 38 | 1006.9 |
| 20260508193543 | 65 | 211 | 3.0 | 12.0 | 0.00 | 0.00 | 0.00 | 35 | 1006.9 |
| 20260508193102 | 65 | 173 | 6.0 | 12.0 | 0.00 | 0.00 | 0.00 | 40 | 1007.0 |
| 20260508192547 | 65 | 203 | 5.0 | 12.0 | 0.00 | 0.00 | 0.00 | 36 | 1007.0 |
| 20260508192047 | 65 | 172 | 2.0 | 9.0 | 0.00 | 0.00 | 0.00 | 37 | 1007.0 |
| 20260508191555 | 65 | 197 | 2.0 | 10.0 | 0.00 | 0.00 | 0.00 | 38 | 1007.1 |
| 20260508191046 | 65 | 190 | 4.0 | 10.0 | 0.00 | 0.00 | 0.00 | 33 | 1007.1 |
| 20260508190547 | 66 | 190 | 3.0 | 10.0 | 0.00 | 0.00 | 0.00 | 33 | 1007.2 |
| 20260508185546 | 67 | 0 | 0.0 | 7.0 | 0.00 | 0.00 | 0.00 | 33 | 1007.4 |
| 20260508185046 | 66 | 184 | 2.0 | 7.0 | 0.00 | 0.00 | 0.00 | 36 | 1007.5 |
| 20260508184624 | 66 | 194 | 2.0 | 7.0 | 0.00 | 0.00 | 0.00 | 33 | 1007.6 |
| 20260508184045 | 65 | 197 | 3.0 | 8.0 | 0.00 | 0.00 | 0.00 | 35 | 1007.6 |
| 20260508183545 | 65 | 207 | 3.0 | 13.0 | 0.00 | 0.00 | 0.00 | 33 | 1007.7 |
| 20260508183051 | 64 | 209 | 3.0 | 13.0 | 0.00 | 0.00 | 0.00 | 33 | 1007.6 |
| 20260508182547 | 65 | 188 | 5.0 | 8.0 | 0.00 | 0.00 | 0.00 | 37 | 1007.7 |
| 20260508182045 | 66 | 190 | 2.0 | 5.0 | 0.00 | 0.00 | 0.00 | 35 | 1007.8 |
| 20260508181604 | 67 | 217 | 0.0 | 8.0 | 0.00 | 0.00 | 0.00 | 30 | 1007.9 |
| 20260508181049 | 64 | 169 | 3.0 | 8.0 | 0.00 | 0.00 | 0.00 | 32 | 1007.9 |
| 20260508180546 | 64 | 196 | 4.0 | 8.0 | 0.00 | 0.00 | 0.00 | 37 | 1008.0 |
| 20260508180053 | 65 | 209 | 0.0 | 6.0 | 0.00 | 0.00 | 0.00 | 33 | 1008.0 |
| 20260508175547 | 63 | 0 | 2.0 | 7.0 | 0.00 | 0.00 | 0.00 | 39 | 1008.1 |
| 20260508175047 | 62 | 188 | 1.0 | 7.0 | 0.00 | 0.00 | 0.00 | 30 | 1008.2 |
| 20260508174551 | 62 | 194 | 3.0 | 7.0 | 0.00 | 0.00 | 0.00 | 35 | 1008.3 |
| 20260508174046 | 62 | 0 | 3.0 | 9.0 | 0.00 | 0.00 | 0.00 | 35 | 1008.2 |
| 20260508173547 | 62 | 178 | 2.0 | 9.0 | 0.00 | 0.00 | 0.00 | 43 | 1008.5 |
| 20260508173053 | 61 | 193 | 4.0 | 9.0 | 0.00 | 0.00 | 0.00 | 37 | 1008.4 |
| 20260508172545 | 61 | 200 | 2.0 | 9.0 | 0.00 | 0.00 | 0.00 | 39 | 1008.6 |
| 20260508172046 | 61 | 188 | 3.0 | 9.0 | 0.00 | 0.00 | 0.00 | 39 | 1008.6 |
| 20260508171551 | 61 | 197 | 4.0 | 8.0 | 0.00 | 0.00 | 0.00 | 41 | 1008.7 |
| 20260508171045 | 60 | 188 | 3.0 | 9.0 | 0.00 | 0.00 | 0.00 | 41 | 1008.7 |
| 20260508170542 | 60 | 184 | 3.0 | 9.0 | 0.00 | 0.00 | 0.00 | 39 | 1008.8 |
| 20260508170052 | 61 | 205 | 3.0 | 6.0 | 0.00 | 0.00 | 0.00 | 41 | 1008.9 |
| 20260508165547 | 61 | 202 | 2.0 | 5.0 | 0.00 | 0.00 | 0.00 | 40 | 1009.0 |
| 20260508165047 | 60 | 191 | 1.0 | 5.0 | 0.00 | 0.00 | 0.00 | 32 | 1009.1 |
| 20260508164600 | 60 | 222 | 2.0 | 5.0 | 0.00 | 0.00 | 0.00 | 39 | 1009.1 |
| 20260508164046 | 60 | 0 | 1.0 | 4.0 | 0.00 | 0.00 | 0.00 | 29 | 1009.2 |
| 20260508163547 | 60 | 187 | 2.0 | 6.0 | 0.00 | 0.00 | 0.00 | 35 | 1009.3 |
| 20260508163051 | 59 | 0 | 1.0 | 6.0 | 0.00 | 0.00 | 0.00 | 37 | 1009.4 |
| 20260508162548 | 59 | 175 | 2.0 | 6.0 | 0.00 | 0.00 | 0.00 | 39 | 1009.5 |
| 20260508162048 | 59 | 192 | 3.0 | 6.0 | 0.00 | 0.00 | 0.00 | 42 | 1009.5 |
| 20260508161551 | 59 | 0 | 2.0 | 5.0 | 0.00 | 0.00 | 0.00 | 38 | 1009.6 |
| 20260508161047 | 60 | 194 | 0.0 | 4.0 | 0.00 | 0.00 | 0.00 | 39 | 1009.6 |
| 20260508160546 | 60 | 223 | 2.0 | 6.0 | 0.00 | 0.00 | 0.00 | 42 | 1009.7 |
| 20260508160050 | 59 | 0 | 2.0 | 6.0 | 0.00 | 0.00 | 0.00 | 41 | 1009.7 |
| 20260508155546 | 59 | 187 | 2.0 | 6.0 | 0.00 | 0.00 | 0.00 | 42 | 1009.9 |
| 20260508155047 | 59 | 178 | 2.0 | 6.0 | 0.00 | 0.00 | 0.00 | 41 | 1010.0 |
| 20260508154550 | 59 | 187 | 2.0 | 5.0 | 0.00 | 0.00 | 0.00 | 41 | 1010.1 |
| 20260508154045 | 59 | 0 | 0.0 | 3.0 | 0.00 | 0.00 | 0.00 | 36 | 1010.1 |
| 20260508153546 | 59 | 0 | 0.0 | 5.0 | 0.00 | 0.00 | 0.00 | 31 | 1010.1 |
| 20260508153125 | 59 | 198 | 2.0 | 5.0 | 0.00 | 0.00 | 0.00 | 41 | 1010.1 |
| 20260508152548 | 58 | 201 | 0.0 | 7.0 | 0.00 | 0.00 | 0.00 | 41 | 1010.1 |
| 20260508152047 | 58 | 183 | 3.0 | 7.0 | 0.00 | 0.00 | 0.00 | 40 | 1010.0 |
| 20260508151600 | 58 | 198 | 2.0 | 7.0 | 0.00 | 0.00 | 0.00 | 40 | 1010.1 |
| 20260508151047 | 57 | 0 | 3.0 | 7.0 | 0.00 | 0.00 | 0.00 | 39 | 1010.1 |
| 20260508150546 | 57 | 187 | 2.0 | 8.0 | 0.00 | 0.00 | 0.00 | 45 | 1010.1 |
| 20260508150100 | 56 | 190 | 5.0 | 8.0 | 0.00 | 0.00 | 0.00 | 47 | 1010.3 |
| 20260508145545 | 56 | 190 | 4.0 | 7.0 | 0.00 | 0.00 | 0.00 | 49 | 1010.2 |
| 20260508145045 | 56 | 211 | 2.0 | 6.0 | 0.00 | 0.00 | 0.00 | 52 | 1010.2 |
| 20260508144619 | 56 | 196 | 2.0 | 6.0 | 0.00 | 0.00 | 0.00 | 56 | 1010.2 |
| 20260508144047 | 55 | 165 | 4.0 | 7.0 | 0.00 | 0.00 | 0.00 | 53 | 1010.1 |
| 20260508143547 | 55 | 189 | 4.0 | 7.0 | 0.00 | 0.00 | 0.00 | 55 | 1010.0 |
| 20260508143059 | 54 | 179 | 3.0 | 7.0 | 0.00 | 0.00 | 0.00 | 61 | 1010.0 |
| 20260508142546 | 53 | 186 | 3.0 | 7.0 | 0.00 | 0.00 | 0.00 | 58 | 1010.1 |
| 20260508142046 | 53 | 182 | 2.0 | 7.0 | 0.00 | 0.00 | 0.00 | 63 | 1010.1 |
| 20260508141605 | 52 | 191 | 2.0 | 5.0 | 0.00 | 0.00 | 0.00 | 65 | 1010.2 |
| 20260508141045 | 52 | 179 | 2.0 | 5.0 | 0.00 | 0.00 | 0.00 | 68 | 1010.2 |
| 20260508140545 | 51 | 188 | 2.0 | 5.0 | 0.00 | 0.00 | 0.00 | 70 | 1010.4 |
| 20260508140054 | 51 | 185 | 3.0 | 6.0 | 0.00 | 0.00 | 0.00 | 73 | 1010.4 |
| 20260508135546 | 50 | 199 | 3.0 | 6.0 | 0.00 | 0.00 | 0.00 | 74 | 1010.2 |
| 20260508135049 | 49 | 190 | 3.0 | 6.0 | 0.00 | 0.00 | 0.00 | 76 | 1010.4 |
| 20260508134557 | 48 | 179 | 2.0 | 5.0 | 0.00 | 0.00 | 0.00 | 80 | 1010.4 |
| 20260508134047 | 46 | 191 | 2.0 | 4.0 | 0.00 | 0.00 | 0.00 | 87 | 1010.6 |
| 20260508133545 | 46 | 182 | 1.0 | 4.0 | 0.00 | 0.00 | 0.00 | 89 | 1010.6 |
| 20260508133115 | 45 | 192 | 0.0 | 4.0 | 0.00 | 0.00 | 0.00 | 91 | 1010.6 |
| 20260508132546 | 45 | 186 | 2.0 | 5.0 | 0.00 | 0.00 | 0.00 | 92 | 1010.6 |
| 20260508132048 | 44 | 186 | 2.0 | 6.0 | 0.00 | 0.00 | 0.00 | 93 | 1010.7 |
| 20260508131551 | 44 | 179 | 3.0 | 8.0 | 0.00 | 0.00 | 0.00 | 93 | 1010.7 |
| 20260508131048 | 43 | 189 | 3.0 | 8.0 | 0.00 | 0.00 | 0.00 | 94 | 1010.6 |
| 20260508130548 | 42 | 184 | 5.0 | 8.0 | 0.00 | 0.00 | 0.00 | 94 | 1010.6 |
| 20260508130052 | 42 | 183 | 3.0 | 6.0 | 0.00 | 0.00 | 0.00 | 94 | 1010.8 |
| 20260508125547 | 41 | 215 | 3.0 | 6.0 | 0.00 | 0.00 | 0.00 | 94 | 1010.8 |
| 20260508125043 | 40 | 186 | 3.0 | 6.0 | 0.00 | 0.00 | 0.00 | 94 | 1010.7 |
| 20260508124552 | 40 | 193 | 2.0 | 6.0 | 0.00 | 0.00 | 0.00 | 94 | 1010.7 |
| 20260508124045 | 39 | 196 | 2.0 | 6.0 | 0.00 | 0.00 | 0.00 | 94 | 1010.7 |
| 20260508123546 | 38 | 184 | 1.0 | 3.0 | 0.00 | 0.00 | 0.00 | 93 | 1010.8 |
| 20260508123100 | 37 | 188 | 1.0 | 3.0 | 0.00 | 0.00 | 0.00 | 93 | 1010.8 |
| 20260508122543 | 37 | 0 | 0.0 | 3.0 | 0.00 | 0.00 | 0.00 | 93 | 1010.8 |
| 20260508122048 | 36 | 0 | 0.0 | 3.0 | 0.00 | 0.00 | 0.00 | 93 | 1010.8 |
| 20260508121552 | 35 | 0 | 0.0 | 3.0 | 0.00 | 0.00 | 0.00 | 92 | 1010.8 |
| 20260508121046 | 35 | 179 | 0.0 | 2.0 | 0.00 | 0.00 | 0.00 | 92 | 1010.8 |
| 20260508120546 | 34 | 0 | 0.0 | 1.0 | 0.00 | 0.00 | 0.00 | 91 | 1010.7 |
| 20260508120056 | 34 | 0 | 0.0 | 0.0 | 0.00 | 0.00 | 0.00 | 91 | 1010.7 |
| 20260508115547 | 34 | 0 | 0.0 | 0.0 | 0.00 | 0.00 | 0.00 | 91 | 1010.6 |
| 20260508115047 | 33 | 0 | 0.0 | 0.0 | 0.00 | 0.00 | 0.00 | 90 | 1010.6 |
| 20260508114554 | 33 | 0 | 0.0 | 0.0 | 0.00 | 0.00 | 0.00 | 90 | 1010.6 |
| 20260508114048 | 33 | 0 | 0.0 | 0.0 | 0.00 | 0.00 | 0.00 | 90 | 1010.6 |
| 20260508113547 | 33 | 0 | 0.0 | 0.0 | 0.00 | 0.00 | 0.00 | 90 | 1010.6 |
| 20260508113108 | 33 | 0 | 0.0 | 0.0 | 0.00 | 0.00 | 0.00 | 90 | 1010.5 |
| 20260508112546 | 33 | 0 | 0.0 | 0.0 | 0.00 | 0.00 | 0.00 | 90 | 1010.5 |
| 20260508112045 | 33 | 0 | 0.0 | 0.0 | 0.00 | 0.00 | 0.00 | 90 | 1010.6 |
| 20260508111553 | 33 | 0 | 0.0 | 0.0 | 0.00 | 0.00 | 0.00 | 90 | 1010.5 |
| 20260508111043 | 32 | 0 | 0.0 | 0.0 | 0.00 | 0.00 | 0.00 | 90 | 1010.4 |
| 20260508110542 | 32 | 0 | 0.0 | 0.0 | 0.00 | 0.00 | 0.00 | 89 | 1010.4 |
| 20260508110059 | 32 | 0 | 0.0 | 0.0 | 0.00 | 0.00 | 0.00 | 89 | 1010.4 |
| 20260508105545 | 32 | 0 | 0.0 | 0.0 | 0.00 | 0.00 | 0.00 | 89 | 1010.5 |
| 20260508105046 | 32 | 0 | 0.0 | 0.0 | 0.00 | 0.00 | 0.00 | 89 | 1010.4 |
| 20260508104556 | 32 | 0 | 0.0 | 0.0 | 0.00 | 0.00 | 0.00 | 89 | 1010.4 |
| 20260508104045 | 33 | 0 | 0.0 | 0.0 | 0.00 | 0.00 | 0.00 | 89 | 1010.3 |
| 20260508103549 | 33 | 0 | 0.0 | 0.0 | 0.00 | 0.00 | 0.00 | 89 | 1010.4 |
| 20260508103059 | 33 | 0 | 0.0 | 0.0 | 0.00 | 0.00 | 0.00 | 89 | 1010.4 |
| 20260508102546 | 33 | 0 | 0.0 | 0.0 | 0.00 | 0.00 | 0.00 | 89 | 1010.4 |
| 20260508102047 | 33 | 0 | 0.0 | 0.0 | 0.00 | 0.00 | 0.00 | 89 | 1010.3 |
| 20260508101602 | 33 | 0 | 0.0 | 0.0 | 0.00 | 0.00 | 0.00 | 89 | 1010.4 |
| 20260508101047 | 33 | 0 | 0.0 | 0.0 | 0.00 | 0.00 | 0.00 | 89 | 1010.4 |
| 20260508100546 | 33 | 0 | 0.0 | 0.0 | 0.00 | 0.00 | 0.00 | 89 | 1010.4 |
| 20260508100054 | 33 | 0 | 0.0 | 0.0 | 0.00 | 0.00 | 0.00 | 89 | 1010.5 |
| 20260508095546 | 33 | 0 | 0.0 | 0.0 | 0.00 | 0.00 | 0.00 | 89 | 1010.6 |
| 20260508095046 | 33 | 0 | 0.0 | 0.0 | 0.00 | 0.00 | 0.00 | 89 | 1010.7 |
| 20260508094554 | 33 | 0 | 0.0 | 0.0 | 0.00 | 0.00 | 0.00 | 89 | 1010.6 |
| 20260508094042 | 33 | 0 | 0.0 | 0.0 | 0.00 | 0.00 | 0.00 | 89 | 1010.6 |
| 20260508093546 | 33 | 0 | 0.0 | 0.0 | 0.00 | 0.00 | 0.00 | 88 | 1010.6 |
| 20260508093053 | 33 | 0 | 0.0 | 0.0 | 0.00 | 0.00 | 0.00 | 88 | 1010.5 |
| 20260508092546 | 33 | 0 | 0.0 | 0.0 | 0.00 | 0.00 | 0.00 | 88 | 1010.6 |
| 20260508092047 | 33 | 0 | 0.0 | 0.0 | 0.00 | 0.00 | 0.00 | 88 | 1010.6 |
| 20260508091601 | 33 | 0 | 0.0 | 0.0 | 0.00 | 0.00 | 0.00 | 88 | 1010.6 |
| 20260508091047 | 33 | 0 | 0.0 | 0.0 | 0.00 | 0.00 | 0.00 | 88 | 1010.9 |
| 20260508090545 | 34 | 0 | 0.0 | 0.0 | 0.00 | 0.00 | 0.00 | 88 | 1010.8 |
| 20260508090109 | 34 | 0 | 0.0 | 0.0 | 0.00 | 0.00 | 0.00 | 88 | 1010.7 |
| 20260508085546 | 34 | 0 | 0.0 | 0.0 | 0.00 | 0.00 | 0.00 | 88 | 1010.9 |
| 20260508085047 | 34 | 0 | 0.0 | 0.0 | 0.00 | 0.00 | 0.00 | 87 | 1010.9 |
| 20260508084554 | 34 | 0 | 0.0 | 0.0 | 0.00 | 0.00 | 0.00 | 88 | 1010.9 |
| 20260508084048 | 34 | 0 | 0.0 | 0.0 | 0.00 | 0.00 | 0.00 | 87 | 1010.9 |
| 20260508083544 | 34 | 0 | 0.0 | 0.0 | 0.00 | 0.00 | 0.00 | 87 | 1011.0 |
| 20260508083049 | 34 | 0 | 0.0 | 0.0 | 0.00 | 0.00 | 0.00 | 87 | 1011.0 |
| 20260508082545 | 34 | 0 | 0.0 | 0.0 | 0.00 | 0.00 | 0.00 | 87 | 1010.8 |
| 20260508082046 | 34 | 0 | 0.0 | 0.0 | 0.00 | 0.00 | 0.00 | 88 | 1010.8 |
| 20260508081602 | 34 | 0 | 0.0 | 1.0 | 0.00 | 0.00 | 0.00 | 87 | 1010.9 |
| 20260508081044 | 34 | 0 | 0.0 | 1.0 | 0.00 | 0.00 | 0.00 | 87 | 1010.9 |
| 20260508080546 | 34 | 0 | 0.0 | 1.0 | 0.00 | 0.00 | 0.00 | 87 | 1010.9 |
| 20260508080053 | 35 | 0 | 0.0 | 0.0 | 0.00 | 0.00 | 0.00 | 87 | 1010.9 |
| 20260508075546 | 35 | 0 | 0.0 | 0.0 | 0.00 | 0.00 | 0.00 | 87 | 1011.2 |
| 20260508075043 | 35 | 0 | 0.0 | 0.0 | 0.00 | 0.00 | 0.00 | 87 | 1010.9 |
| 20260508074555 | 35 | 0 | 0.0 | 0.0 | 0.00 | 0.00 | 0.00 | 87 | 1011.0 |
| 20260508074045 | 35 | 0 | 0.0 | 1.0 | 0.00 | 0.00 | 0.00 | 87 | 1011.0 |
| 20260508073547 | 35 | 0 | 0.0 | 1.0 | 0.00 | 0.00 | 0.00 | 87 | 1011.0 |
| 20260508073101 | 35 | 0 | 0.0 | 2.0 | 0.00 | 0.00 | 0.00 | 87 | 1011.1 |
| 20260508072546 | 35 | 0 | 0.0 | 2.0 | 0.00 | 0.00 | 0.00 | 86 | 1010.9 |
| 20260508072046 | 35 | 0 | 0.0 | 2.0 | 0.00 | 0.00 | 0.00 | 86 | 1011.1 |
| 20260508071600 | 35 | 0 | 0.0 | 2.0 | 0.00 | 0.00 | 0.00 | 86 | 1011.3 |
| 20260508071045 | 35 | 0 | 0.0 | 1.0 | 0.00 | 0.00 | 0.00 | 86 | 1011.1 |
| 20260508070548 | 36 | 0 | 0.0 | 1.0 | 0.00 | 0.00 | 0.00 | 85 | 1011.3 |
| 20260508070050 | 36 | 0 | 0.0 | 0.0 | 0.00 | 0.00 | 0.00 | 85 | 1011.3 |
| 20260508065542 | 36 | 0 | 0.0 | 0.0 | 0.00 | 0.00 | 0.00 | 86 | 1011.4 |
| 20260508065045 | 36 | 0 | 0.0 | 0.0 | 0.00 | 0.00 | 0.00 | 86 | 1011.4 |
| 20260508064556 | 36 | 0 | 0.0 | 0.0 | 0.00 | 0.00 | 0.00 | 86 | 1011.4 |
| 20260508064048 | 36 | 0 | 0.0 | 0.0 | 0.00 | 0.00 | 0.00 | 86 | 1011.5 |
| 20260508063544 | 36 | 0 | 0.0 | 0.0 | 0.00 | 0.00 | 0.00 | 86 | 1011.4 |
| 20260508063051 | 36 | 0 | 0.0 | 0.0 | 0.00 | 0.00 | 0.00 | 86 | 1011.4 |
| 20260508062542 | 36 | 0 | 0.0 | 0.0 | 0.00 | 0.00 | 0.00 | 86 | 1011.4 |
| 20260508062042 | 36 | 0 | 0.0 | 0.0 | 0.00 | 0.00 | 0.00 | 86 | 1011.5 |
| 20260508061554 | 36 | 0 | 0.0 | 0.0 | 0.00 | 0.00 | 0.00 | 86 | 1011.6 |
| 20260508061047 | 36 | 0 | 0.0 | 1.0 | 0.00 | 0.00 | 0.00 | 86 | 1011.8 |
| 20260508060546 | 36 | 0 | 0.0 | 1.0 | 0.00 | 0.00 | 0.00 | 86 | 1011.8 |
| 20260508060055 | 36 | 0 | 0.0 | 1.0 | 0.00 | 0.00 | 0.00 | 86 | 1011.8 |
| 20260508055546 | 36 | 0 | 0.0 | 0.0 | 0.00 | 0.00 | 0.00 | 85 | 1011.8 |
| 20260508055045 | 36 | 0 | 0.0 | 0.0 | 0.00 | 0.00 | 0.00 | 85 | 1011.8 |
| 20260508054550 | 37 | 0 | 0.0 | 1.0 | 0.00 | 0.00 | 0.00 | 85 | 1011.8 |
| 20260508054046 | 37 | 0 | 0.0 | 2.0 | 0.00 | 0.00 | 0.00 | 86 | 1011.8 |
| 20260508053550 | 37 | 0 | 0.0 | 2.0 | 0.00 | 0.00 | 0.00 | 86 | 1011.8 |
| 20260508053115 | 37 | 0 | 0.0 | 2.0 | 0.00 | 0.00 | 0.00 | 86 | 1011.8 |
| 20260508052547 | 37 | 0 | 0.0 | 0.0 | 0.00 | 0.00 | 0.00 | 85 | 1011.9 |
| 20260508052043 | 37 | 0 | 0.0 | 0.0 | 0.00 | 0.00 | 0.00 | 85 | 1011.8 |
| 20260508051554 | 37 | 0 | 0.0 | 0.0 | 0.00 | 0.00 | 0.00 | 85 | 1011.8 |
| 20260508051044 | 37 | 0 | 0.0 | 0.0 | 0.00 | 0.00 | 0.00 | 85 | 1011.8 |
| 20260508050544 | 37 | 0 | 0.0 | 1.0 | 0.00 | 0.00 | 0.00 | 85 | 1011.8 |
| 20260508050055 | 37 | 0 | 0.0 | 1.0 | 0.00 | 0.00 | 0.00 | 85 | 1011.7 |
| 20260508045546 | 37 | 0 | 0.0 | 1.0 | 0.00 | 0.00 | 0.00 | 85 | 1011.8 |
| 20260508045047 | 37 | 0 | 0.0 | 1.0 | 0.00 | 0.00 | 0.00 | 85 | 1011.6 |
| 20260508044555 | 37 | 0 | 0.0 | 1.0 | 0.00 | 0.00 | 0.00 | 85 | 1011.6 |
| 20260508044047 | 37 | 0 | 0.0 | 1.0 | 0.00 | 0.00 | 0.00 | 85 | 1011.6 |
| 20260508043547 | 37 | 0 | 0.0 | 1.0 | 0.00 | 0.00 | 0.00 | 85 | 1011.5 |
| 20260508043054 | 37 | 0 | 0.0 | 1.0 | 0.00 | 0.00 | 0.00 | 84 | 1011.5 |